{"data":{"norad_id":45578,"epoch":"2026-09-20T03:41:13.513632Z","epoch_age_seconds":48245,"freshness":"FRESH","line1":"1 45578U 20025AZ  26263.15362863  .00088187  00000+0  42470-3 0  9992","line2":"2 45578  53.0394 189.9316 0004713  82.4109 277.7448 15.81906317356140","mean_motion":15.81906317,"eccentricity":0.0004713,"inclination_deg":53.0394,"raan_deg":189.9316,"arg_perigee_deg":82.4109,"mean_anomaly_deg":277.7448,"bstar":0.0004247,"rev_number":35614,"period_min":91.029410814345,"perigee_km":321.8907770569,"apogee_km":328.20920111281,"semimajor_km":6703.1869890849,"source":"CELESTRAK","updated_at":"2026-09-20T09:00:38.448265Z"}}